一网星座-0109星 (ONEWEB-0109 )

导读 | 星芒AI

ONEWEB-0109 是 OneWeb 卫星通信公司发射的低轨通信卫星之一,用于构建其全球宽带互联网星座。该卫星运行在约 1200 公里的太阳同步轨道上,采用标准化设计,以提高发射效率和降低成本。OneWeb 项目旨在为全球偏远地区提供高速互联网接入,支持航空、航海及地面用户。ONEWEB-0109 是其星座部署计划的一部分,有助于增强网络覆盖和系统冗余。

基本信息
目录编号:
47259
目录名称:
ONEWEB-0109
国际标识:
2020-100B
轨道中心:
EARTH
卫星名称:
一网星座-0109星
卫星全名:
一网星座-0109星 (ONEWEB-0109 )
卫星状态:
在轨 (已飞行1765 天)
发射日期:
2020-12-18 UTC
国别 :
英国 (GB)
星等 :
--
轨道信息
数据来源 国际轨道数据
星历时间: 2025-10-18T04:40:06+0800
9小时前
查看轨道信息
半长轴: 7591.86km
偏心率: 0.0001858
轨道倾角: 87.896°
近地点辐角 103.508°
升交点赤经 38.791°
平近点角 256.626°
近地点: 1212.314km
远地点: 1215.136km
周期: 109.719分钟
每日圈数: 13.124432
详细信息
平衡模式:
三轴稳定
覆盖范围:
全球
运营商:
一网卫星公司
运营商所在国:
英国
制造商(研发单位):
一网卫星公司
制造商所在国:
英国
使用方式:
暂无
卫星简介
OneWeb卫星网络由648颗重约125公斤的微型卫星组成,运行在1200公里的轨道上。 每颗卫星都能够提供至少每秒8千兆位的吞吐量,以使用其高吞吐量的Ku频段有效载荷为家庭和移动平台提供互联网接入。该卫星仍在工作。
2D轨道图
3D轨道图
轨道高度分析图
轨道倾角分析图
轨道综合分析图
查看轨道综合分析图